Weather History for Meriden, CT

Change the Weather History Date:

Friday, January 11, 2013

  Actual Average (KHVN) Record (KHVN)
Temperature  
Mean Temperature 30 °F -  
Max Temperature 37 °F 34 °F 57 °F (1983)
Min Temperature 23 °F 22 °F 0 °F (1982)
Degree Days  
Heating Degree Days 35    
Moisture  
Dew Point 29 °F    
Average Humidity 89    
Maximum Humidity 100    
Minimum Humidity 62    
Precipitation  
Precipitation 0.24 in - - ()
Sea Level Pressure  
Sea Level Pressure 30.32 in    
Wind  
Wind Speed 1 mph (WNW)    
Max Wind Speed 6 mph    
Max Gust Speed -    
Visibility 6 miles    
Events Rain    
Averages and records for this station are not official NWS values.
T = Trace of Precipitation, MM = Missing Value Source: NWS Daily Summary

Daily Weather History Graph

Daily Weather History Graph

Search for Another Location

Airport:

Trip Planner

Search our weather history database for the weather conditions in past years. The results will help you decide how hot, cold, wet, or windy it might be!

Date:

Astronomy

Jan. 11, 2013 Rise Set
Actual Time 7:16 AM EST 4:42 PM EST
Civil Twilight 6:46 AM EST 5:13 PM EST
Nautical Twilight 6:11 AM EST 5:47 PM EST
Astronomical Twilight 5:38 AM EST 6:20 PM EST
Moon 6:47 AM EST (1/11) 4:57 PM EST (1/11)
Length of Visible Light 10h 26m
Length of Day
9h 25m
Waning Crescent, 0% of the Moon is Illuminated
Jan 11
Waning Crescent
Jan 11
New
Jan 18
First Quarter
Jan 26
Full
Feb 3
Last Quarter

Hourly Weather History & Observations

Time (EST) Temp. Windchill Dew Point Humidity Pressure Visibility Wind Dir Wind Speed Gust Speed Precip Events Conditions
12:53 AM 25.0 °F 20.7 °F 21.9 °F 88% 30.54 in 10.0 mi NW 3.5 mph - N/A   Clear
1:53 AM 26.1 °F - 21.9 °F 84% 30.55 in 8.0 mi Calm Calm - N/A   Clear
2:53 AM 24.1 °F - 21.0 °F 88% 30.52 in 10.0 mi Calm Calm - N/A   Clear
3:53 AM 25.0 °F - 21.9 °F 88% 30.51 in 10.0 mi Calm Calm - N/A   Clear
4:53 AM 23.0 °F - 21.0 °F 92% 30.49 in 10.0 mi Calm Calm - N/A   Clear
5:53 AM 23.0 °F - 19.9 °F 88% 30.48 in 10.0 mi Calm Calm - N/A   Clear
6:53 AM 25.0 °F - 21.9 °F 88% 30.51 in 10.0 mi Calm Calm - N/A   Clear
7:53 AM 26.1 °F - 23.0 °F 88% 30.51 in 10.0 mi Calm Calm - N/A   Clear
8:53 AM 30.0 °F - 25.0 °F 82% 30.51 in 10.0 mi Calm Calm - N/A   Clear
9:53 AM 30.9 °F - 25.0 °F 79% 30.49 in 10.0 mi Calm Calm - N/A   Clear
10:53 AM 34.0 °F - 26.1 °F 73% 30.47 in 10.0 mi Calm Calm - N/A   Clear
11:53 AM 35.1 °F - 25.0 °F 67% 30.41 in 10.0 mi Calm Calm - N/A   Clear
12:53 PM 36.0 °F - 25.0 °F 64% 30.39 in 10.0 mi Calm Calm - N/A   Partly Cloudy
1:53 PM 37.9 °F - 26.1 °F 62% 30.36 in 10.0 mi Calm Calm - N/A   Overcast
3:48 PM 33.8 °F - 30.2 °F 87% 30.33 in 6.0 mi Calm Calm - 0.04 in Rain Light Rain
3:53 PM 35.1 °F - 30.9 °F 85% 30.33 in 4.0 mi Calm Calm - 0.04 in Rain Light Rain
4:14 PM 35.6 °F - 32.0 °F 87% 30.31 in 4.0 mi Calm Calm - 0.00 in Rain Light Rain
4:53 PM 34.0 °F - 32.0 °F 92% 30.29 in 7.0 mi Calm Calm - 0.00 in   Overcast
5:34 PM 33.8 °F - 33.8 °F 100% 30.27 in 4.0 mi Calm Calm - 0.01 in   Overcast
5:53 PM 34.0 °F 31.0 °F 33.1 °F 96% 30.27 in 4.0 mi West 3.5 mph - 0.01 in Rain Light Rain
6:31 PM 33.8 °F - 33.8 °F 100% 30.25 in 4.0 mi Calm Calm - 0.01 in Rain Light Rain
6:53 PM 34.0 °F - 32.0 °F 92% 30.25 in 3.0 mi Calm Calm - 0.03 in Rain Light Rain
7:02 PM 33.8 °F - 32.0 °F 93% 30.24 in 2.5 mi Calm Calm - 0.01 in Rain Light Rain
7:12 PM 33.8 °F - 33.8 °F 100% 30.23 in 3.0 mi Calm Calm - 0.01 in Rain Rain
7:31 PM 33.8 °F - 33.8 °F 100% 30.22 in 2.5 mi Calm Calm - 0.03 in Rain Rain
7:53 PM 34.0 °F - 33.1 °F 96% 30.22 in 2.5 mi Calm Calm - 0.05 in Rain Rain
8:32 PM 33.8 °F 28.6 °F 33.8 °F 100% 30.22 in 2.0 mi WNW 5.8 mph - 0.03 in Rain Rain
8:49 PM 35.6 °F - 33.8 °F 93% 30.21 in 3.0 mi Calm Calm - 0.08 in Rain Rain
8:53 PM 35.1 °F - 34.0 °F 96% 30.21 in 3.0 mi Calm Calm - 0.08 in Rain Rain
9:13 PM 35.6 °F - 33.8 °F 93% 30.20 in 2.5 mi Calm Calm - 0.03 in Rain Light Rain
9:53 PM 35.1 °F - 34.0 °F 96% 30.19 in 2.5 mi Calm Calm - 0.03 in Rain Light Rain
9:56 PM 35.6 °F - 33.8 °F 93% 30.19 in 3.0 mi Calm Calm - 0.00 in Rain Light Rain
10:53 PM 35.1 °F - 34.0 °F 96% 30.18 in 3.0 mi Calm Calm - 0.00 in   Overcast
11:20 PM 35.6 °F - 33.8 °F 93% 30.16 in 2.5 mi Calm Calm - 0.00 in Rain Light Rain
11:32 PM 35.6 °F - 33.8 °F 93% 30.16 in 3.0 mi Calm Calm - 0.00 in Rain Light Rain
11:51 PM 35.6 °F - 33.8 °F 93% 30.16 in 2.0 mi Calm Calm - 0.00 in Rain Light Rain
11:53 PM 35.1 °F - 34.0 °F 96% 30.16 in 2.0 mi Calm Calm - 0.00 in Rain Light Rain